Lapse_Rate
6.0 5.8 5.8 5.8 6.0 6.1 6.3 6.5 6.3 6.3 6.0 5.5 5.4 5.5 5.5 5.4 5.6 5.9 5.8 5.0 5.2 5.4 5.5 5.7 5.7 5.5 5.7 5.7 5.4 5.3 4.7 5.3 6.1 6.2 6.5 6.9 6.9 7.1 6.9 6.6 6.8 6.9 6.7 6.4 6.9
5.9 6.0 5.6 5.9 6.1 6.1 6.1 6.3 6.3 6.2 6.0 5.7 5.6 5.4 4.9 4.8 5.3 5.8 4.7 5.0 5.2 5.2 5.2 5.3 5.4 5.3 5.4 5.6 5.0 4.9 4.9 6.0 6.2 6.2 6.3 6.5 6.7 6.8 6.6 6.6 6.7 6.9 6.7 6.4 6.7
6.1 6.0 6.0 6.1 6.1 6.0 6.1 6.3 6.3 6.3 6.1 5.9 5.7 5.4 5.0 4.8 4.6 5.6 4.6 5.2 5.1 4.7 4.9 4.8 4.8 4.8 5.1 5.4 5.2 4.8 5.4 6.0 6.0 5.8 6.0 6.2 6.3 6.5 6.5 6.5 6.9 6.9 6.7 6.6 6.5
6.1 6.0 5.9 5.7 5.8 5.9 6.2 6.2 6.2 6.3 6.2 6.1 5.9 5.5 5.1 4.8 4.9 5.4 5.1 5.0 4.9 4.3 4.8 4.5 4.5 4.6 4.9 5.2 5.0 4.4 5.6 5.7 5.9 5.6 5.5 6.0 6.2 6.4 6.4 6.8 6.7 6.7 6.6 6.6 6.6
5.9 5.8 5.8 5.9 5.7 5.9 6.1 6.2 6.3 6.3 6.2 6.0 6.1 5.6 5.4 5.0 5.1 5.2 4.9 4.7 4.7 4.8 4.5 4.4 4.4 4.4 4.5 4.8 4.6 4.5 5.3 5.1 5.2 5.4 5.6 5.8 6.2 6.5 6.7 6.5 6.6 6.6 6.6 6.6 6.6
5.8 5.7 5.6 6.0 5.9 5.8 5.9 6.1 6.1 6.1 6.2 6.0 6.1 5.8 5.6 5.7 4.8 5.0 5.2 5.0 4.7 4.7 4.5 4.4 4.4 4.4 4.5 4.7 4.3 4.5 5.1 5.2 5.0 5.3 5.4 5.6 6.3 5.5 7.1 6.8 6.4 6.5 6.6 6.6 6.7
5.6 5.8 5.5 5.9 6.0 5.9 5.7 5.9 6.0 5.9 6.1 6.1 6.1 5.9 6.0 5.2 5.1 5.2 5.2 5.3 5.0 4.8 4.6 4.4 4.4 4.4 4.6 4.4 4.2 4.1 4.4 4.7 5.5 5.7 4.7 5.1 5.4 5.8 6.6 6.6 6.5 6.4 6.5 6.5 6.6
5.3 5.6 5.5 5.9 5.9 5.9 5.6 5.5 5.7 5.7 5.9 5.9 6.0 6.1 6.1 5.2 5.5 5.2 5.2 5.2 5.1 4.9 4.8 4.5 4.4 4.1 4.3 4.2 4.1 4.3 4.0 4.8 5.4 5.6 5.3 4.8 4.9 5.7 6.2 6.2 6.5 6.7 6.5 6.4 6.4
5.1 5.3 5.3 5.3 5.6 5.8 5.8 5.6 5.3 5.5 5.6 5.7 6.1 6.0 6.0 5.8 5.5 5.5 5.5 5.2 5.0 4.9 4.7 4.7 4.6 4.2 4.2 4.4 4.2 4.4 4.0 4.2 4.6 4.7 4.9 4.7 4.5 5.4 5.8 5.8 6.0 6.5 6.5 6.5 6.4
4.8 4.9 5.4 5.1 5.6 5.8 5.9 5.6 5.5 5.2 5.5 5.6 5.9 5.8 5.9 5.7 5.7 5.6 5.6 5.6 5.4 5.0 4.7 4.8 4.4 4.2 4.4 5.3 4.7 4.7 3.9 3.8 3.7 4.2 4.4 4.4 4.3 4.9 5.3 5.4 6.1 6.2 6.3 6.2 6.3
4.9 4.8 4.7 5.2 5.2 5.6 6.1 5.8 5.5 5.1 5.5 5.9 5.9 5.6 6.0 5.8 5.7 5.6 5.5 5.7 5.6 5.3 5.0 4.7 4.5 5.1 5.5 4.9 4.6 4.1 4.0 3.5 3.4 4.1 4.0 4.5 4.5 4.7 5.0 5.0 5.6 6.1 6.4 6.2 6.1
5.2 5.1 5.1 5.2 5.1 5.5 5.7 6.1 6.1 5.4 5.6 5.6 5.5 5.6 5.9 5.7 5.6 5.4 5.4 5.6 5.5 5.5 5.2 4.9 5.1 5.3 4.8 4.5 4.4 4.3 4.0 3.9 3.9 4.0 4.1 3.7 4.6 4.4 5.0 5.3 5.8 6.3 6.5 6.5 6.4
4.8 4.6 4.8 5.8 4.8 5.1 5.6 5.8 6.0 6.0 5.4 5.6 5.4 5.6 5.5 5.6 5.3 5.5 5.4 5.3 5.3 5.0 5.1 5.0 5.0 4.7 4.8 4.5 4.1 3.9 3.8 3.7 3.6 3.8 4.1 3.8 4.1 5.3 5.8 5.7 5.9 6.3 6.7 6.9 6.7
5.8 5.5 4.9 5.7 5.3 5.3 5.4 5.7 6.4 5.8 5.5 5.7 5.9 5.7 5.5 5.6 5.4 5.4 5.3 5.0 4.8 4.9 4.6 4.7 4.9 4.7 4.5 4.3 4.4 4.2 4.2 4.4 4.1 3.7 3.4 3.8 3.5 3.8 5.0 5.2 5.4 5.8 6.5 6.9 7.1
6.1 5.4 5.6 5.3 5.1 5.8 5.8 5.8 6.3 5.7 4.2 5.8 5.6 5.4 5.6 5.2 4.8 5.6 5.3 4.8 4.4 4.5 4.7 4.9 4.5 4.4 4.4 4.7 4.3 4.1 4.3 4.5 4.6 4.2 3.8 3.6 3.5 3.6 4.4 5.0 5.6 6.1 6.4 6.5 6.8
6.7 6.2 6.1 5.6 5.5 6.0 6.4 6.1 5.9 5.3 4.1 5.7 5.4 5.0 5.1 4.7 4.2 4.6 5.1 4.0 3.9 3.7 3.7 4.1 4.0 4.1 4.1 4.2 4.2 4.2 4.2 4.4 4.8 4.7 4.5 4.1 4.1 4.2 4.3 5.0 5.4 5.8 6.6 6.9 6.4
7.2 6.7 6.5 5.9 5.8 5.9 5.8 6.0 5.6 5.3 5.7 5.5 5.3 4.7 4.5 4.4 4.4 4.2 4.3 4.0 4.0 4.1 4.0 4.3 4.3 4.4 4.3 4.4 4.8 4.8 5.1 6.0 6.2 5.9 5.6 5.6 4.7 4.8 4.9 5.0 5.1 5.6 6.4 6.3 6.2
7.1 6.9 6.4 5.8 5.6 5.9 5.9 6.1 5.6 5.9 5.7 5.6 5.5 4.7 4.6 4.3 4.4 4.3 4.1 4.1 4.4 4.2 3.9 3.9 4.2 4.9 5.3 5.7 5.3 5.3 6.1 6.8 7.3 6.9 7.0 7.0 5.5 4.9 5.2 5.5 5.8 6.0 6.3 6.4 6.4
7.5 6.6 6.4 6.4 6.5 6.2 6.1 6.1 6.5 6.5 6.6 6.1 4.8 4.5 4.4 4.3 4.4 4.3 4.3 4.5 4.4 4.3 4.3 4.1 3.9 4.4 5.2 5.4 5.5 5.3 5.7 7.6 6.6 6.5 6.6 7.2 7.0 6.3 6.0 6.2 6.6 6.5 5.9 6.0 6.1
7.1 6.8 6.6 6.6 6.4 6.2 6.4 6.3 6.1 6.8 6.7 6.3 6.1 5.1 4.4 4.3 4.3 4.4 4.3 4.8 4.7 4.6 4.1 4.1 3.8 4.7 5.0 5.1 5.3 5.4 5.7 6.8 6.7 7.2 7.0 7.0 6.8 6.8 7.2 7.5 7.6 6.8 6.0 5.9 6.3
7.3 6.8 6.2 6.6 6.4 6.1 6.0 6.5 6.5 6.6 6.5 6.2 5.9 5.4 4.8 4.4 4.7 4.4 4.8 5.1 4.8 5.1 4.4 4.2 4.1 4.6 4.7 5.0 5.8 5.6 5.8 6.6 7.0 6.8 7.1 7.3 7.5 7.7 7.7 7.8 7.0 6.9 6.1 6.0 6.4
7.1 7.0 7.0 6.6 6.4 6.1 6.1 6.5 6.5 6.3 6.5 6.1 5.7 5.4 5.1 4.8 4.7 4.6 4.9 5.1 5.1 5.1 4.8 5.1 4.5 4.6 4.9 5.6 6.1 6.4 6.5 6.7 6.8 6.7 6.9 7.0 6.8 7.4 7.8 7.6 7.4 7.1 6.7 5.9 6.2
7.0 7.0 6.6 6.2 6.3 6.1 6.0 6.4 6.6 6.8 6.2 5.7 5.8 5.2 5.1 5.2 5.1 4.9 4.9 5.1 5.0 5.2 4.9 5.0 4.5 4.8 4.9 5.6 5.8 5.8 6.3 6.3 6.6 6.8 6.5 6.6 6.7 8.2 7.8 7.5 7.5 7.0 6.4 5.9 6.4
6.7 7.2 6.9 6.5 6.3 6.2 6.1 6.4 6.6 6.5 6.1 5.9 5.5 5.1 5.4 5.2 4.9 5.0 5.2 5.0 5.1 5.2 5.0 4.7 4.8 5.0 5.6 6.0 5.9 5.9 6.2 6.3 6.5 6.6 6.7 6.4 6.8 7.7 8.0 7.8 7.6 7.2 6.5 6.2 7.0
7.0 6.9 6.4 6.3 6.2 6.0 6.1 6.6 6.5 6.4 6.3 6.0 5.4 5.4 5.6 5.2 5.2 5.0 5.3 5.0 5.2 5.3 5.1 4.7 4.9 4.9 5.4 5.4 5.0 5.2 5.5 5.9 5.9 6.7 6.0 7.1 6.6 7.2 7.0 7.3 7.5 7.0 6.3 6.5 7.0
6.9 6.1 6.1 6.1 6.2 6.2 5.9 6.3 6.5 6.6 6.6 6.2 6.0 5.7 5.4 5.5 5.1 5.3 5.1 5.2 5.5 5.2 5.0 4.9 4.9 4.8 4.9 5.2 5.2 5.1 4.8 5.2 5.6 5.8 6.1 6.1 6.4 6.7 6.3 6.2 6.5 6.4 6.1 6.7 7.4
6.5 6.5 6.2 6.2 6.4 6.7 6.8 6.8 6.6 6.6 6.4 6.4 6.0 5.7 5.4 5.4 5.2 5.4 5.0 5.2 5.0 4.7 4.8 4.6 4.6 4.5 4.9 5.0 4.9 5.4 5.4 4.8 4.8 5.2 6.1 5.7 7.6 6.3 6.5 5.7 5.6 6.3 5.7 6.8 7.4
Wind_Speed
17 17 16 13 11 9 9 9 10 11 11 11 15 18 10 13 10 3 5 7 5 9 2 2 4 2 3 2 2 3 2 7 8 8 6 2 2 2 1 3 3 2 3 2 2
18 18 19 14 12 10 8 8 9 10 11 9 11 15 11 14 4 8 7 11 7 5 3 2 1 1 2 2 2 3 4 8 6 6 4 3 4 3 2 3 5 6 4 3 1
21 18 17 17 12 12 9 7 8 8 8 6 9 11 5 12 2 4 6 18 13 9 4 3 3 1 2 2 3 3 8 3 3 3 2 3 4 3 4 7 6 6 4 7 1
30 19 18 17 14 13 10 8 7 5 4 5 7 8 4 1 3 1 4 3 17 9 7 4 2 3 2 4 2 3 5 5 3 2 2 3 2 5 5 8 5 4 4 5 10
28 27 19 17 18 14 12 8 6 5 3 2 5 4 2 1 4 0 3 6 3 9 9 5 3 4 4 3 1 3 2 3 4 6 5 5 11 11 11 9 10 12 8 12 12
29 25 28 18 18 16 13 10 8 7 3 2 4 3 4 5 2 6 1 5 4 9 4 5 4 3 2 2 2 0 2 5 6 6 4 9 15 6 10 11 12 10 12 10 10
27 26 26 22 16 19 14 12 10 9 5 3 4 3 3 9 3 2 6 2 2 4 5 3 4 2 3 1 0 1 4 7 7 7 7 4 14 15 19 12 15 14 13 12 12
27 27 22 25 17 16 18 15 13 9 8 6 5 2 5 1 2 2 1 3 3 3 4 5 4 3 2 1 3 1 2 3 3 3 6 9 14 7 3 10 16 17 12 12 14
25 28 25 21 23 15 20 18 12 9 3 9 3 4 6 1 3 4 4 5 4 3 3 6 4 3 2 3 1 2 4 5 5 4 2 11 6 5 10 4 9 10 11 11 12
27 27 24 21 19 20 21 17 16 11 7 4 2 1 3 3 3 4 0 6 4 5 3 3 3 3 2 3 5 4 4 5 5 2 3 11 17 15 12 13 16 13 11 10 11
28 26 22 22 16 20 18 9 5 2 5 7 6 2 2 3 4 3 3 5 3 4 4 2 3 8 11 6 4 0 3 9 9 11 11 15 20 17 15 12 14 15 16 15 13
29 26 21 22 17 26 15 5 8 8 4 10 3 4 3 0 4 2 6 5 4 4 5 3 9 8 4 5 8 10 14 16 11 8 11 12 25 17 16 19 18 19 17 16 14
25 20 19 20 21 10 15 8 6 8 5 2 7 5 4 3 3 8 8 4 4 5 7 5 3 2 11 6 10 13 16 14 16 9 13 16 26 19 18 23 20 21 21 21 19
21 20 25 21 8 4 11 9 8 5 4 4 4 5 6 5 4 6 9 5 2 9 7 9 7 4 4 7 8 14 7 11 13 7 8 2 10 7 5 10 9 12 16 18 17
26 30 27 18 7 6 7 11 6 4 2 4 4 2 6 11 5 1 3 4 7 5 5 4 4 4 11 6 7 5 4 7 8 8 7 12 7 6 2 4 9 10 14 14 16
28 33 30 8 7 3 12 10 5 4 6 6 5 7 8 4 3 4 7 1 2 5 5 5 1 4 6 5 9 2 2 4 1 4 9 11 10 17 7 10 3 6 11 9 13
30 39 31 11 8 8 13 8 4 4 1 8 6 9 9 7 4 7 9 8 4 4 5 3 13 4 3 3 2 7 4 3 5 6 8 8 11 20 9 17 16 17 14 10 8
40 43 13 7 8 6 11 4 4 5 3 5 9 10 5 8 5 6 10 7 9 2 1 4 5 11 9 15 7 11 9 5 6 5 4 3 9 8 12 13 13 13 14 12 9
41 2 4 4 9 3 8 4 6 6 9 9 11 5 3 2 2 4 7 6 8 12 5 3 5 2 6 5 9 4 10 11 5 4 3 4 8 11 13 15 11 12 10 13 12
2 2 2 7 10 4 4 5 1 3 11 9 5 5 9 9 6 8 7 3 6 13 11 1 5 4 1 3 6 7 1 4 5 5 5 7 7 13 9 14 6 6 10 14 13
5 2 2 4 8 6 2 3 5 4 6 4 4 5 5 7 7 5 4 3 7 5 13 5 5 1 3 10 11 7 6 6 2 4 3 4 6 5 9 3 3 7 11 14 12
3 2 5 2 5 2 2 5 5 4 3 3 4 5 4 6 4 5 6 5 6 8 10 8 4 6 14 8 14 15 12 15 7 5 5 2 13 12 14 4 5 10 12 13 9
2 1 5 3 3 3 3 4 4 3 2 2 4 4 3 5 4 6 4 5 8 9 9 7 4 4 6 0 3 8 14 16 13 4 15 7 8 1 5 8 8 10 10 9 3
1 1 3 2 2 6 5 3 4 4 3 3 4 5 4 4 4 3 4 3 10 7 8 11 5 7 10 8 2 5 14 19 14 7 10 18 21 19 18 14 17 15 12 7 3
3 1 1 3 2 4 5 4 5 3 1 3 3 3 5 4 6 5 5 3 5 10 7 9 8 11 19 22 15 10 13 18 19 22 12 10 15 12 9 9 10 11 9 5 6
4 2 1 3 8 7 3 3 5 3 4 4 2 8 7 5 6 4 4 5 5 4 8 5 5 4 15 17 19 18 16 18 20 21 21 19 25 15 13 8 7 13 12 6 6
2 3 1 7 6 4 3 6 7 6 2 2 4 4 8 10 8 9 7 4 3 5 10 4 3 3 10 3 8 7 16 21 18 18 13 17 23 8 10 9 12 16 9 7 10
Wind_Direction
300 279 259 259 254 249 270 284 297 301 302 311 318 323 194 169 132 150 227 215 200 266 299 320 44 10 75 113 117 137 166 228 225 184 223 220 197 268 206 267 307 262 259 312 32
305 297 275 248 252 250 255 274 285 295 302 313 331 333 206 162 157 217 235 209 223 211 103 86 92 17 91 137 172 187 197 225 190 188 225 258 223 247 298 276 284 312 293 360 62
302 297 294 252 244 249 248 264 280 282 297 322 358 350 323 177 209 229 261 229 217 207 122 109 119 107 141 137 189 193 238 192 199 191 187 271 282 223 218 253 230 257 284 322 285
345 301 292 270 238 240 239 257 270 284 302 339 6 2 353 259 225 110 24 242 209 166 124 123 81 103 140 196 198 216 253 242 225 237 256 220 232 274 238 245 244 228 299 300 303
344 341 299 290 239 227 229 233 249 249 253 332 10 38 31 211 251 45 25 22 82 150 167 142 121 138 184 196 135 213 271 267 309 312 263 247 241 250 246 246 268 284 278 276 277
337 342 338 299 261 221 219 209 224 229 235 172 66 89 89 232 335 36 339 49 73 163 139 158 183 186 189 218 174 266 280 275 282 261 265 261 264 226 244 227 245 246 259 261 259
326 335 335 329 292 230 205 200 207 216 187 159 112 92 101 237 99 357 18 73 50 116 137 164 148 130 156 189 279 256 304 302 238 236 250 265 266 245 251 227 240 240 242 252 253
319 323 333 327 308 239 196 198 196 207 217 172 125 80 236 257 140 211 122 82 82 73 101 141 134 110 151 196 357 269 233 262 279 232 242 198 250 268 272 228 246 245 231 242 257
318 313 319 322 322 289 191 189 179 159 156 162 83 118 262 160 175 188 158 144 108 88 89 130 113 151 106 119 359 233 255 231 306 209 251 205 267 272 270 293 266 258 255 249 258
316 313 313 320 300 323 191 162 137 106 93 73 72 266 244 203 153 119 100 128 111 118 90 109 87 122 149 140 222 198 220 241 222 342 344 286 277 280 274 281 284 287 279 261 257
313 308 303 318 284 332 152 120 121 109 200 191 186 228 113 112 116 66 138 95 86 87 170 167 164 204 199 194 185 200 253 268 272 291 308 280 277 275 272 260 266 272 278 275 259
307 303 301 312 287 275 170 191 187 162 171 223 157 272 277 3 114 124 139 133 143 176 150 158 235 216 195 209 225 248 262 269 278 251 273 289 283 275 265 259 252 256 257 258 264
311 319 313 303 301 288 191 203 161 119 96 211 196 192 184 146 191 179 155 140 135 155 186 194 166 118 191 196 219 241 250 266 270 294 281 290 281 267 251 250 248 246 247 248 245
329 322 314 306 288 210 192 172 217 103 83 217 184 237 165 131 256 170 174 142 150 191 204 254 249 231 172 207 195 248 203 240 256 267 267 167 291 256 264 266 257 257 244 246 240
328 320 309 285 299 207 160 172 179 57 61 149 155 144 153 163 154 17 185 105 157 176 150 235 194 170 218 204 174 243 197 217 225 242 276 246 264 292 299 256 264 249 242 235 235
316 318 315 281 224 199 172 141 48 88 226 152 129 160 146 218 119 117 173 46 132 172 236 224 178 167 193 195 191 130 283 278 229 231 248 235 213 275 248 247 275 286 268 252 246
314 303 298 276 216 218 181 119 133 169 136 152 166 158 167 160 178 145 173 184 177 168 217 243 231 175 163 169 196 186 174 234 221 207 237 193 200 247 284 298 263 280 274 263 257
308 290 249 225 183 168 155 127 130 167 158 146 146 133 165 141 200 151 159 199 215 133 146 190 314 196 174 213 182 187 187 216 230 226 235 180 228 253 227 253 250 248 260 266 257
308 134 149 170 151 161 167 177 170 185 140 137 124 141 165 153 156 153 190 205 200 173 202 187 256 222 208 187 175 176 212 220 273 248 247 238 269 285 256 259 271 281 284 276 252
90 76 131 145 174 172 186 135 179 129 120 139 127 163 171 178 161 186 184 220 212 180 199 153 275 216 227 163 241 196 27 188 193 234 234 247 257 243 290 272 264 315 286 299 271
328 129 200 215 146 143 197 163 119 122 119 125 114 132 152 159 172 188 207 270 200 181 181 148 213 189 135 210 192 194 210 211 270 225 229 270 251 222 235 227 290 289 321 319 298
277 199 172 189 117 120 179 145 113 129 28 108 102 97 122 139 153 194 221 234 182 140 177 202 219 244 232 212 211 212 215 218 230 218 230 221 262 304 280 9 313 325 327 314 303
235 135 145 120 121 102 268 67 86 109 142 119 92 97 128 150 167 205 197 235 166 166 173 164 223 286 297 341 200 220 218 219 231 254 241 240 253 270 89 359 319 329 323 316 321
217 145 88 205 353 134 147 72 92 41 115 91 100 90 112 159 239 167 223 259 194 196 183 165 214 214 253 253 267 226 221 213 214 224 248 239 270 265 292 316 318 326 330 297 200
198 62 124 143 205 133 67 102 116 120 74 159 117 159 167 192 191 218 215 259 175 201 195 180 251 243 253 262 249 237 223 215 218 232 217 275 248 274 269 282 305 314 314 251 186
8 81 32 133 148 111 50 185 147 142 146 165 185 190 185 221 223 207 190 190 211 158 179 201 262 253 274 260 252 239 228 224 216 228 239 260 275 277 287 307 333 305 316 250 181
343 299 287 154 153 118 187 167 186 132 189 186 203 180 205 233 234 250 251 258 205 167 197 216 238 271 281 287 290 258 238 228 230 228 223 230 242 291 286 319 279 287 291 233 177